CAPE
2 0 0 0 0 0 0 0 0 0 0 0 0 0 0 0 0 0 0 0 0 0 0 0 0 0 0 0 0 0 0 0 0 0 0 0 0 0 0 0 0 0 0 0 0
1 0 0 0 0 0 0 0 0 0 0 0 0 0 0 0 0 0 0 0 0 0 0 0 0 0 0 0 0 0 0 0 0 0 0 0 0 0 0 0 0 0 0 0 0
0 0 0 0 0 0 0 0 0 0 0 0 0 0 0 0 0 0 0 0 0 0 0 0 0 0 0 0 0 0 0 0 0 0 0 0 0 0 0 0 0 0 0 0 0
0 0 0 0 0 0 0 0 0 0 0 0 0 0 0 0 0 0 0 0 0 0 0 0 0 0 0 0 0 0 0 0 0 0 0 0 0 0 0 0 0 0 0 0 0
0 0 0 0 0 0 0 0 0 0 0 0 0 0 0 0 0 0 0 0 0 0 0 0 0 0 0 0 0 0 0 0 0 0 0 0 0 0 0 0 0 0 0 0 0
0 0 0 0 0 0 0 0 0 0 0 0 0 0 0 0 0 0 0 0 0 0 0 0 0 0 0 0 0 0 0 0 0 0 0 0 0 0 0 0 0 0 0 0 0
0 0 0 0 0 0 0 0 0 0 0 0 0 0 0 0 0 0 0 0 0 0 0 0 0 0 0 0 0 0 0 0 0 0 0 0 0 0 0 0 0 0 0 0 0
0 0 0 0 0 0 0 0 0 0 0 0 0 0 0 0 0 0 0 0 0 0 0 0 0 0 0 0 0 0 0 0 0 0 0 0 0 0 0 0 0 0 0 0 0
0 0 0 0 0 0 0 0 0 0 0 0 0 0 0 0 0 0 0 0 0 0 0 0 0 0 0 0 0 0 0 0 0 0 0 0 0 0 0 0 0 0 0 0 0
0 0 0 0 0 0 0 0 0 0 0 0 0 0 0 0 0 0 0 0 0 0 0 0 0 0 0 0 0 0 0 0 0 0 0 0 0 0 0 2 0 0 0 0 0
0 0 0 0 0 0 0 0 0 0 0 0 0 0 0 0 0 0 0 0 0 0 0 0 0 0 0 0 0 0 0 0 0 0 0 0 0 0 5 4 12 11 10 0 4
0 0 0 0 0 0 0 0 0 0 0 0 0 0 0 0 0 0 0 0 0 0 0 0 0 0 0 0 0 0 0 0 0 0 0 0 23 61 32 16 0 3 0 0 0
0 0 0 0 0 0 0 0 0 0 0 0 0 0 0 0 0 0 0 0 0 0 0 0 0 0 0 0 0 0 0 0 0 0 23 46 30 60 33 21 1 0 0 0 0
0 0 0 0 0 0 0 0 0 0 0 0 0 0 0 0 0 0 0 0 0 0 0 0 0 0 0 0 0 0 0 0 0 0 37 94 63 110 90 61 33 8 22 17 20
0 0 0 0 0 0 0 0 0 0 0 0 0 0 0 0 0 0 0 0 0 0 0 0 0 0 0 0 0 0 0 0 0 8 87 211 165 142 55 63 6 12 3 15 20
0 0 0 0 0 0 0 0 0 0 0 0 0 0 0 0 0 0 0 0 0 0 0 0 0 0 0 0 0 0 1 0 0 27 213 118 21 10 5 0 3 10 36 54 37
0 0 0 0 0 0 0 0 0 0 0 0 0 0 0 0 0 0 0 0 0 0 0 0 1 0 0 0 0 14 37 3 15 56 20 1 1 0 0 0 4 12 8 18 50
0 0 0 0 0 0 0 0 0 0 0 0 0 0 0 0 0 0 0 0 0 0 0 0 29 0 0 0 0 15 41 0 0 5 0 0 90 198 0 2 1 1 0 23 111
0 0 0 0 0 0 0 0 0 0 0 0 0 0 0 0 0 0 0 0 0 0 0 0 0 0 0 0 0 29 28 18 1 2 9 36 1 154 37 2 0 0 1 8 0
0 0 0 0 0 0 0 0 0 0 0 0 0 0 0 0 0 0 0 0 0 0 0 1 0 0 0 1 7 28 10 11 29 0 1 5 7 42 14 9 9 2 4 12 35
0 0 0 0 0 0 0 0 0 0 0 0 0 0 0 0 0 0 0 0 0 0 0 0 4 0 3 34 40 22 36 43 29 3 4 0 0 1 9 5 0 0 4 11 65
0 0 0 0 0 0 0 0 0 0 0 0 0 0 0 0 0 0 0 0 0 0 0 6 0 7 3 26 0 21 27 23 21 9 14 19 0 24 0 0 8 7 3 4 47
0 0 0 0 0 0 0 0 0 0 0 0 0 0 0 0 0 0 0 0 0 0 0 0 10 8 5 43 12 16 23 10 21 55 26 0 0 0 1 0 11 1 2 3 6
0 0 0 0 0 0 0 0 0 0 0 0 0 0 0 0 0 0 0 0 0 0 0 0 4 18 6 17 5 3 18 9 46 17 11 19 8 14 10 1 7 0 3 4 4
0 0 0 0 0 0 0 0 0 0 0 0 0 0 0 0 0 0 0 0 0 0 0 10 13 10 7 2 30 11 13 22 19 40 1 0 16 0 11 0 7 1 2 4 4
0 0 0 0 0 0 0 0 0 0 0 0 0 0 0 0 0 0 0 0 0 0 1 11 6 6 13 2 21 15 22 14 14 25 1 1 15 8 28 11 0 0 2 5 3
0 0 0 0 0 0 0 0 0 0 0 0 0 0 0 0 0 0 0 0 0 0 0 4 11 15 4 17 1 23 32 6 6 11 18 0 11 16 13 2 3 0 4 4 4
CIN
0 0 0 0 0 0 0 0 0 0 0 0 0 0 0 0 0 0 0 0 0 0 0 0 0 0 0 0 0 0 0 0 0 0 0 0 0 0 0 0 0 0 0 0 0
0 0 0 0 0 0 0 0 0 0 0 0 0 0 0 0 0 0 0 0 0 0 0 0 0 0 0 0 0 0 0 0 0 0 0 0 0 0 0 0 0 0 0 0 0
0 0 0 0 0 0 0 0 0 0 0 0 0 0 0 0 0 0 0 0 0 0 0 0 0 0 0 0 0 0 0 0 0 0 0 0 0 0 0 0 0 0 0 0 0
0 0 0 0 0 0 0 0 0 0 0 0 0 0 0 0 0 0 0 0 0 0 0 0 0 0 0 0 0 0 0 0 0 0 0 0 0 0 0 0 0 0 0 0 0
0 0 0 0 0 0 0 0 0 0 0 0 0 0 0 0 0 0 0 0 0 0 0 0 0 0 0 0 0 0 0 0 0 0 0 0 0 0 0 0 0 0 0 0 0
0 0 0 0 0 0 0 0 0 0 0 0 0 0 0 0 0 0 0 0 0 0 0 0 0 0 0 0 0 0 0 0 0 0 0 0 0 0 0 0 0 0 0 0 0
0 0 0 0 0 0 0 0 0 0 0 0 0 0 0 0 0 0 0 0 0 0 0 0 0 0 0 0 0 0 0 0 0 0 0 0 0 0 0 0 0 0 0 0 0
0 0 0 0 0 0 0 0 0 0 0 0 0 0 0 0 0 0 0 0 0 0 0 0 0 0 0 0 0 0 0 0 0 0 0 0 0 0 0 0 0 0 0 0 0
0 0 0 0 0 0 0 0 0 0 0 0 0 0 0 0 0 0 0 0 0 0 0 0 0 0 0 0 0 0 0 0 0 0 0 0 0 0 0 0 0 0 0 0 0
0 0 0 0 0 0 0 0 0 0 0 0 0 0 0 0 0 0 0 0 0 0 0 0 0 0 0 0 0 0 0 0 0 0 0 0 0 0 -50 -173 -37 0 0 0 0
0 0 0 0 0 0 0 0 0 0 0 0 0 0 0 0 0 0 0 0 0 0 0 0 0 0 0 0 0 0 0 0 0 0 0 0 0 0 -194 -159 -170 -159 -137 -59 -3
0 0 0 0 0 0 0 0 0 0 0 0 0 0 0 0 0 0 0 0 0 0 0 0 0 0 0 0 0 0 0 0 0 0 0 0 -132 -74 -109 -105 -31 -197 0 0 0
0 0 0 0 0 0 0 0 0 0 0 0 0 0 0 0 0 0 0 0 0 0 0 0 0 0 0 0 0 0 0 0 0 0 -150 -57 -86 -90 -86 -75 -30 0 0 0 0
0 0 0 0 0 0 0 0 0 0 0 0 0 0 0 0 0 0 0 0 0 0 0 0 0 0 0 0 0 0 0 0 0 0 -84 -34 -95 -22 -26 -50 -77 -6 -5 -5 -3
0 0 0 0 0 0 0 0 0 0 0 0 0 0 0 0 0 0 0 0 0 0 0 0 0 0 0 0 0 0 0 0 0 -71 -33 -20 -5 -21 -65 -80 -125 -90 -16 -4 -5
0 0 0 0 0 0 0 0 0 0 0 0 0 0 0 0 0 0 0 0 0 0 0 0 0 0 0 0 0 0 -1 0 0 -19 -12 -15 -47 -3 -84 -1 -1 -4 -4 -76 -4
0 0 0 0 0 0 0 0 0 0 0 0 0 0 0 0 0 0 0 0 0 0 0 0 -2 0 0 0 0 -3 -4 -2 -14 -7 -9 -4 -34 0 0 0 -3 -2 -2 -59 -22
0 0 0 0 0 0 0 0 0 0 0 0 0 0 0 0 0 0 0 0 0 0 0 0 -4 0 0 0 0 -3 -2 -2 0 -1 0 0 -7 -4 0 -2 -2 -1 -1 -24 -4
0 0 0 0 0 0 0 0 0 0 0 0 0 0 0 0 0 0 0 0 0 0 0 0 0 0 0 0 0 -2 -3 -2 -2 -4 0 -37 -7 -7 -6 -4 -1 0 -1 -1 -1
0 0 0 0 0 0 0 0 0 0 0 0 0 0 0 0 0 0 0 0 0 0 0 -2 0 0 -1 -1 -6 -7 -3 -2 -2 0 -2 -5 -4 -2 -2 -1 -2 -1 -1 -1 -96
0 0 0 0 0 0 0 0 0 0 0 0 0 0 0 0 0 0 0 0 0 0 0 0 -1 0 -3 -4 -9 -30 -9 -3 -2 -4 -4 -2 -2 -15 -2 -1 0 0 0 0 -87
0 0 0 0 0 0 0 0 0 0 0 0 0 0 0 0 0 0 0 0 0 0 0 -3 0 -2 -4 -9 0 -2 -4 -1 -2 -4 -2 0 0 -36 0 0 0 0 0 0 -83
0 0 0 0 0 0 0 0 0 0 0 0 0 0 0 0 0 0 0 0 0 0 0 0 -1 -2 -4 -6 -10 -5 -2 -4 -4 -2 0 -1 0 0 -8 0 0 0 0 0 0
0 0 0 0 0 0 0 0 0 0 0 0 0 0 0 0 0 0 0 0 0 0 0 0 -2 -2 0 -3 -3 -5 -2 -9 -2 -3 0 -1 -1 -3 -25 -2 -1 0 0 0 0
0 0 0 0 0 0 0 0 0 0 0 0 0 0 0 0 0 -1 0 0 0 0 0 -14 -3 -3 -3 -6 -3 -3 -4 -6 -8 -2 -2 0 -2 -2 -1 0 -1 0 0 0 0
0 0 0 0 0 0 0 0 0 0 0 0 0 0 0 0 -2 0 0 0 0 0 -3 -4 -2 -4 -2 -20 -6 -5 -7 -12 -12 -1 -5 -15 -2 -6 -3 -11 0 0 0 0 0
0 0 0 0 0 0 0 0 0 0 0 0 0 0 0 -3 0 0 0 0 0 0 0 -2 -2 -7 -2 -3 -4 -6 -4 -12 -13 -4 -1 0 -1 -4 -2 -1 -1 0 0 0 0
Wind_Speed
1 9 12 14 13 9 11 15 13 12 12 10 7 7 7 11 6 19 25 22 22 22 22 16 16 18 14 15 15 16 21 27 29 31 31 24 28 25 28 31 34 34 38 37 37
9 10 15 16 15 12 10 9 7 6 8 9 9 9 6 8 13 26 21 21 22 24 23 22 21 19 14 15 15 15 20 24 27 28 30 31 31 34 36 39 41 38 40 40 38
25 27 23 20 16 16 11 11 11 10 9 10 11 8 8 14 15 24 20 19 21 22 21 20 21 19 17 16 17 18 19 25 26 26 28 33 33 32 36 40 39 42 40 40 40
27 25 19 19 17 15 12 12 12 11 11 10 10 12 14 16 24 22 19 18 20 21 24 23 22 18 18 18 19 24 22 25 28 29 31 34 35 36 36 40 39 40 42 43 42
25 25 19 19 18 15 14 13 11 11 12 12 13 17 17 18 25 19 18 16 15 22 23 24 23 24 20 20 24 21 22 24 25 26 29 32 33 38 40 40 39 38 40 42 43
27 28 21 18 18 17 13 11 11 12 13 14 14 16 16 20 22 18 14 14 12 19 24 23 23 24 21 20 22 25 24 27 25 24 25 26 29 32 35 34 36 37 36 37 39
29 28 26 21 17 15 14 11 11 11 12 12 13 16 15 25 19 14 11 9 10 15 19 23 23 20 24 24 18 22 25 23 19 16 20 21 28 28 20 21 32 35 36 37 37
30 29 28 21 18 13 11 9 10 10 11 12 14 12 17 21 20 17 16 10 9 10 9 12 17 18 17 16 21 17 18 23 19 22 21 21 29 22 19 25 23 21 32 36 37
31 29 29 26 16 14 13 12 10 10 10 10 15 12 16 17 27 17 14 19 15 9 9 12 12 15 17 16 23 12 22 28 33 24 25 19 34 26 17 15 15 14 16 24 32
32 30 30 30 20 16 16 14 13 11 12 10 10 15 15 28 28 13 17 14 16 18 13 6 12 15 13 15 28 29 28 31 32 28 28 28 29 36 15 18 19 22 18 18 18
35 33 31 32 22 16 18 16 19 16 9 19 19 18 21 23 21 19 23 20 16 15 17 17 18 17 23 22 22 21 23 31 25 27 29 37 33 29 19 20 24 20 44 40 40
36 34 33 32 25 19 17 24 24 19 21 12 12 14 20 18 28 22 24 25 23 22 17 14 13 18 21 22 21 22 24 30 29 34 39 32 24 26 26 25 30 25 32 35 34
37 36 33 31 21 17 20 22 20 19 18 14 14 18 22 23 25 29 26 25 21 20 19 19 14 21 20 22 23 24 27 31 31 40 37 29 40 34 28 21 24 21 22 28 30
37 36 34 25 19 26 20 22 17 18 21 16 18 19 21 25 21 22 24 22 19 21 21 14 16 19 21 21 24 25 30 32 36 40 39 40 34 31 31 32 25 25 27 35 40
37 37 35 16 20 23 22 19 16 15 25 19 20 18 22 25 27 20 23 21 22 21 15 12 23 21 20 23 25 26 29 15 43 39 36 34 11 31 34 35 38 40 43 45 46
38 36 34 14 11 20 20 18 15 19 22 20 20 27 27 25 25 24 22 16 20 19 12 13 17 16 20 22 20 26 26 40 35 7 25 19 35 25 34 40 42 45 47 42 37
38 33 20 16 20 22 18 15 21 21 20 23 27 30 27 29 25 28 27 24 28 29 24 22 12 15 16 28 30 24 34 30 21 18 31 41 31 20 32 37 43 49 48 40 35
40 28 13 12 18 17 16 17 22 22 25 26 27 27 22 27 27 27 26 25 26 28 25 24 17 17 28 25 26 23 26 24 23 26 38 35 17 22 29 42 48 50 45 43 45
40 21 12 15 18 14 16 19 25 24 24 27 28 25 24 25 28 28 25 22 25 28 27 23 14 35 14 27 21 21 23 24 19 30 31 17 30 22 37 49 54 55 44 38 29
33 23 18 20 15 14 16 19 21 20 22 22 25 23 28 29 27 29 24 21 23 22 23 18 18 15 27 4 11 16 24 21 22 27 31 30 36 41 47 52 58 53 26 46 23
24 23 22 19 14 14 19 22 20 19 23 22 23 26 25 27 28 29 22 22 19 24 18 11 12 8 7 15 14 13 25 25 23 23 24 34 35 32 48 55 60 51 22 35 28
23 23 24 20 16 18 20 19 18 19 19 20 19 20 21 26 26 27 23 24 25 20 23 22 13 13 3 6 15 14 30 27 29 28 16 11 18 38 50 58 38 19 15 27 33
25 22 22 19 20 20 19 18 18 19 20 19 19 18 23 25 26 23 23 20 22 21 20 15 16 22 25 17 17 15 25 25 26 30 19 23 12 35 48 46 20 24 17 24 28
21 22 20 20 20 20 20 18 19 18 18 17 17 17 21 28 19 20 19 19 15 14 21 14 9 8 9 4 9 5 6 20 26 30 17 6 24 39 49 46 41 19 14 22 25
19 20 19 21 19 21 19 19 19 19 15 17 15 16 26 24 32 15 31 26 20 18 13 15 12 5 7 13 7 5 3 24 29 30 28 9 20 40 47 23 26 22 12 24 26
20 19 19 17 18 18 16 16 18 17 16 15 14 22 22 18 14 17 32 18 18 16 16 14 8 6 10 11 3 6 3 23 29 31 27 34 16 42 44 32 21 12 15 20 22
20 16 17 16 17 17 17 19 16 16 13 12 15 13 13 25 21 13 8 3 2 4 7 7 7 11 16 13 12 2 18 25 30 32 24 34 28 35 41 32 7 13 11 15 18
Wind_Direction
176 114 109 103 109 141 270 295 285 284 276 266 230 188 214 264 222 48 9 6 354 335 340 359 1 344 354 342 335 330 309 301 300 297 297 307 299 302 299 290 286 283 277 276 284
306 109 95 91 94 111 129 148 180 196 178 162 147 135 156 243 75 19 26 16 1 341 352 345 342 343 352 346 344 332 317 313 319 312 307 304 301 297 292 288 283 283 280 277 279
354 32 55 66 84 89 120 122 131 135 139 129 110 114 101 56 48 17 33 23 11 359 358 354 342 339 340 344 343 337 325 325 321 319 316 306 305 304 294 287 286 282 281 279 277
0 41 74 70 76 87 107 104 117 125 118 121 106 81 67 54 15 23 36 31 15 3 347 344 343 337 338 337 338 325 328 324 320 320 314 309 308 301 296 292 291 287 283 279 276
345 30 68 68 68 78 83 87 114 114 94 83 71 44 41 37 16 32 34 39 33 2 351 339 331 327 330 335 334 328 328 329 327 323 318 316 309 303 297 294 291 289 285 279 275
348 16 56 67 64 65 76 89 90 84 76 64 56 43 39 16 20 32 41 37 37 12 344 342 336 333 336 337 334 333 333 328 326 323 324 320 318 311 306 302 292 289 287 284 280
353 359 29 50 60 65 66 81 86 85 73 58 48 36 36 13 27 36 47 48 44 27 2 345 343 345 334 334 344 336 330 332 328 339 333 332 319 313 329 334 302 294 287 283 282
349 350 12 42 53 65 74 93 93 81 65 55 42 51 25 26 32 37 38 41 53 36 27 16 0 346 339 343 336 328 330 333 358 341 334 334 316 327 330 329 319 311 296 290 284
344 343 347 18 50 56 58 63 72 64 53 53 38 44 21 36 4 28 39 18 15 17 26 16 6 356 348 337 339 327 335 328 327 337 329 323 308 260 315 275 270 285 292 299 293
339 336 336 352 30 41 41 49 49 48 46 50 45 27 24 355 3 30 26 18 9 8 7 14 359 346 340 338 332 331 328 325 326 331 323 267 257 267 289 303 274 299 273 267 268
339 332 332 341 17 30 27 32 19 20 38 11 14 14 7 8 22 22 15 11 19 8 354 359 352 349 347 343 338 335 331 325 329 331 325 279 266 267 285 304 261 277 293 293 293
334 330 329 345 6 22 31 10 10 11 3 27 22 19 11 16 355 13 13 3 359 353 359 353 336 353 348 344 341 337 334 329 332 318 294 269 268 333 332 331 324 325 312 298 300
330 326 325 351 17 28 15 12 18 17 7 22 19 8 6 5 356 357 7 3 360 355 356 346 345 351 348 345 342 339 336 331 332 294 279 291 290 329 335 335 340 334 325 315 310
326 323 325 7 19 5 15 10 19 22 358 14 11 14 10 2 5 9 11 8 7 359 355 354 360 347 345 344 342 337 334 328 322 291 287 316 275 337 336 332 345 337 330 316 308
321 320 324 21 11 7 8 19 29 37 352 15 10 19 7 5 357 13 12 12 360 355 3 355 347 345 347 345 341 336 333 334 290 288 310 324 312 333 327 328 325 316 313 310 305
315 314 316 28 36 16 15 24 33 4 351 5 9 357 354 360 0 3 8 18 9 1 355 351 346 353 349 350 345 336 341 314 304 317 332 354 317 345 337 328 321 316 312 321 322
309 301 2 17 9 6 15 21 357 351 8 356 352 351 353 353 359 0 1 6 5 359 358 352 14 6 2 344 340 345 336 341 350 338 311 313 328 350 345 347 334 323 318 327 326
306 289 16 17 8 14 15 1 346 354 350 352 350 350 355 358 359 360 360 359 7 2 357 2 4 13 342 347 345 350 354 353 346 330 283 300 359 348 349 340 334 330 326 330 322
312 4 14 18 8 16 3 346 344 349 352 349 350 353 356 360 358 359 2 6 8 7 5 2 8 314 5 342 355 355 354 351 350 316 306 357 340 357 339 328 326 317 331 337 331
355 3 15 11 23 12 353 342 352 359 355 355 350 357 350 353 358 359 5 13 10 18 21 16 2 10 337 335 18 5 356 357 351 331 287 326 320 330 325 320 322 315 294 320 301
4 359 11 14 23 7 350 353 354 3 358 355 352 347 352 353 354 353 4 8 18 11 20 18 20 354 270 14 8 22 356 339 342 336 335 294 336 355 336 326 325 321 299 296 298
4 355 10 16 5 7 358 360 2 359 3 358 358 359 359 354 354 350 359 357 3 16 8 15 26 10 312 3 25 20 334 345 329 281 347 335 350 337 341 340 317 341 314 298 300
356 360 18 16 358 2 4 1 5 2 360 1 0 5 352 349 348 357 359 13 10 14 11 14 27 9 6 32 26 7 333 282 273 287 259 351 349 301 334 323 340 9 311 302 304
4 355 12 19 14 5 3 5 3 8 4 9 5 6 358 345 3 356 1 14 23 17 12 33 37 40 19 282 270 306 264 261 290 298 314 347 289 311 336 326 332 329 329 304 305
12 4 6 356 5 2 3 4 4 5 20 11 19 13 350 354 332 18 339 355 8 20 36 33 25 257 254 256 256 253 233 272 293 299 338 290 291 321 336 344 16 18 336 311 312
357 -0 0 354 359 358 8 11 6 11 14 19 18 358 358 4 14 262 298 10 17 26 22 21 16 260 266 256 48 253 10 334 300 322 347 329 293 330 349 327 23 3 321 314 311
360 2 355 352 351 353 355 355 7 13 25 22 12 14 13 346 302 260 260 283 350 10 21 19 29 258 270 269 266 67 11 338 322 324 351 329 301 314 328 321 355 326 326 316 313